Fremont, MI

9:35 PM EDT on October 21, 2019 (GMT -0400)
Fremont

Weather History for KFFX - August, 2019

Change the Weather History Date:

Saturday, August 17, 2019

  Actual Average (WUND) Record (WUND)
Temperature  
Mean Temperature 70 °F -  
Max Temperature 82 °F - - (-1)
Min Temperature 57 °F - - (-1)
Cooling Degree Days 4    
Growing Degree Days 20 (Base 50)    
Moisture  
Dew Point 60 °F    
Average Humidity 72    
Maximum Humidity 100    
Minimum Humidity 40    
Precipitation  
Precipitation 0.00 in - - ()
Sea Level Pressure  
Sea Level Pressure 29.89 in    
Wind  
Wind Speed 3 mph (West)    
Max Wind Speed 9 mph    
Max Gust Speed -    
Visibility 10 miles    
Events      
Averages and records for this station are not official NWS values.
T = Trace of Precipitation, MM = Missing Value Source: NWS Daily Summary

Daily Weather History Graph

Daily Weather History Graph

Search for Another Location

Airport or City:

Astronomy

Aug. 17, 2019 Rise Set
Actual Time 6:50 AM EDT 8:44 PM EDT
Civil Twilight 6:20 AM EDT 9:15 PM EDT
Nautical Twilight 5:42 AM EDT 9:52 PM EDT
Astronomical Twilight 5:01 AM EDT 10:33 PM EDT
Moon 10:08 PM EDT (8/17) 8:40 AM EDT (8/17)
Length of Visible Light 14h 54m
Length of Day
13h 53m
Waning Gibbous, 96% of the Moon is Illuminated
Aug 17
Waning Gibbous
Aug 23
Last Quarter
Aug 30
New
Sep 5
First Quarter
Sep 14
Full

Hourly Weather History & Observations

Time (EDT) Temp. Heat Index Dew Point Humidity Pressure Visibility Wind Dir Wind Speed Gust Speed Precip Events Conditions
12:15 AM 68.5 °F - 62.8 °F 82% 29.86 in 10.0 mi North 8.1 mph - N/A   Overcast
12:38 AM 67.3 °F - 64.8 °F 92% 29.86 in 10.0 mi Calm Calm - N/A   Mostly Cloudy
1:15 AM 65.5 °F - 65.1 °F 99% 29.86 in 10.0 mi Calm Calm - N/A   Scattered Clouds
1:16 AM 65.5 °F - 65.1 °F 99% 29.86 in 10.0 mi Calm Calm - N/A   Scattered Clouds
1:35 AM 64.9 °F - 64.6 °F 99% 29.87 in 10.0 mi Calm Calm - N/A   Scattered Clouds
1:36 AM 64.8 °F - 64.6 °F 99% 29.87 in 10.0 mi Calm Calm - N/A   Scattered Clouds
1:59 AM 63.1 °F - 63.1 °F 100% 29.87 in 10.0 mi SW 3.5 mph - N/A   Clear
2:17 AM 62.6 °F - 62.6 °F 100% 29.86 in 10.0 mi SSW 3.5 mph - N/A   Clear
2:35 AM 62.4 °F - 62.4 °F 100% 29.86 in 10.0 mi SW 3.5 mph - N/A   Clear
2:36 AM 62.6 °F - 62.6 °F 100% 29.86 in 10.0 mi SW 3.5 mph - N/A   Clear
2:55 AM 62.6 °F - 62.6 °F 100% 29.87 in 10.0 mi WSW 3.5 mph - N/A   Clear
2:56 AM 62.6 °F - 62.6 °F 100% 29.87 in 10.0 mi WSW 3.5 mph - N/A   Clear
3:15 AM 63.0 °F - 63.0 °F 100% 29.86 in 10.0 mi WSW 3.5 mph - N/A   Clear
3:38 AM 63.0 °F - 63.0 °F 100% 29.86 in 10.0 mi Calm Calm - N/A   Clear
3:56 AM 62.1 °F - 62.1 °F 100% 29.86 in 10.0 mi Calm Calm - N/A   Clear
4:15 AM 61.7 °F - 61.7 °F 100% 29.86 in 10.0 mi SSW 3.5 mph - N/A   Clear
4:35 AM 60.8 °F - 60.8 °F 100% 29.85 in 10.0 mi SW 3.5 mph - N/A   Clear
4:36 AM 60.8 °F - 60.8 °F 100% 29.85 in 10.0 mi SW 3.5 mph - N/A   Clear
4:59 AM 61.3 °F - 61.3 °F 100% 29.86 in 10.0 mi Calm Calm - N/A   Clear
5:17 AM 61.0 °F - 61.0 °F 100% 29.86 in 10.0 mi Calm Calm - N/A   Clear
5:36 AM 58.6 °F - 58.6 °F 100% 29.85 in 3.0 mi Calm Calm - N/A   Clear
5:55 AM 59.7 °F - 59.7 °F 100% 29.85 in 3.0 mi Calm Calm - N/A   Clear
6:15 AM 59.4 °F - 59.4 °F 100% 29.84 in 1.8 mi Calm Calm - N/A   Mist
6:20 AM 59.0 °F - 59.0 °F 100% 29.84 in 1.0 mi Calm Calm - N/A   Mist
6:38 AM 57.9 °F - 57.9 °F 100% 29.84 in 4.0 mi Calm Calm - N/A   Clear
6:56 AM 58.5 °F - 58.5 °F 100% 29.86 in 1.0 mi Calm Calm - N/A   Mist
7:15 AM 57.4 °F - 57.4 °F 100% 29.89 in 7.0 mi SSW 5.8 mph - N/A   Scattered Clouds
7:16 AM 57.4 °F - 57.4 °F 100% 29.89 in 7.0 mi SSW 5.8 mph - N/A   Scattered Clouds
7:35 AM 62.1 °F - 62.1 °F 100% 29.92 in 10.0 mi SW 6.9 mph - N/A   Scattered Clouds
7:59 AM 65.3 °F - 65.3 °F 100% 29.89 in 10.0 mi NW 3.5 mph - N/A   Clear
8:17 AM 66.9 °F - 66.6 °F 99% 29.91 in 10.0 mi West 3.5 mph - N/A   Clear
8:35 AM 68.4 °F - 66.9 °F 95% 29.92 in 10.0 mi West 5.8 mph - N/A   Clear
8:36 AM 68.5 °F - 67.1 °F 95% 29.92 in 10.0 mi West 5.8 mph - N/A   Clear
8:55 AM 69.8 °F - 66.9 °F 91% 29.92 in 10.0 mi West 4.6 mph - N/A   Clear
8:56 AM 70.0 °F - 66.9 °F 90% 29.92 in 10.0 mi WNW 4.6 mph - N/A   Clear
9:15 AM 71.6 °F - 64.6 °F 78% 29.92 in 10.0 mi WNW 4.6 mph - N/A   Clear
9:20 AM 72.1 °F - 64.2 °F 76% 29.91 in 10.0 mi NW 8.1 mph - N/A   Clear
9:38 AM 72.5 °F - 63.9 °F 74% 29.91 in 10.0 mi WNW 5.8 mph - N/A   Clear
9:56 AM 73.4 °F - 63.1 °F 70% 29.91 in 10.0 mi WNW 6.9 mph - N/A   Clear
10:15 AM 73.6 °F - 62.8 °F 69% 29.92 in 10.0 mi WNW 5.8 mph - N/A   Clear
10:35 AM 75.2 °F - 63.0 °F 66% 29.93 in 10.0 mi West 4.6 mph - N/A   Scattered Clouds
10:59 AM 76.6 °F - 61.3 °F 59% 29.93 in 10.0 mi West 8.1 mph - N/A   Scattered Clouds
11:17 AM 76.6 °F - 61.5 °F 59% 29.94 in 10.0 mi WSW 8.1 mph - N/A   Mostly Cloudy
11:35 AM 77.0 °F - 61.5 °F 59% 29.94 in 10.0 mi WSW 4.6 mph - N/A   Scattered Clouds
11:55 AM 77.4 °F - 60.4 °F 56% 29.94 in 10.0 mi WSW 9.2 mph - N/A   Mostly Cloudy
12:15 PM 77.9 °F - 59.5 °F 53% 29.93 in 10.0 mi WSW 9.2 mph - N/A   Scattered Clouds
12:20 PM 77.4 °F - 58.6 °F 52% 29.93 in 10.0 mi West 6.9 mph - N/A   Scattered Clouds
12:38 PM 79.0 °F - 58.5 °F 49% 29.92 in 10.0 mi NW 8.1 mph - N/A   Clear
12:56 PM 78.3 °F - 59.0 °F 51% 29.91 in 10.0 mi WNW 8.1 mph - N/A   Clear
1:15 PM 78.4 °F - 58.6 °F 50% 29.92 in 10.0 mi West 3.5 mph - N/A   Clear
1:35 PM 79.7 °F - 58.5 °F 48% 29.92 in 10.0 mi West 3.5 mph - N/A   Clear
1:59 PM 80.6 °F 80.9 °F 58.1 °F 46% 29.93 in 10.0 mi SW 8.1 mph - N/A   Mostly Cloudy
2:16 PM 80.4 °F 80.8 °F 57.9 °F 46% 29.92 in 10.0 mi SW 9.2 mph - N/A   Mostly Cloudy
2:35 PM 81.5 °F 81.6 °F 58.1 °F 45% 29.92 in 10.0 mi SW 9.2 mph - N/A   Scattered Clouds
2:36 PM 81.7 °F 81.6 °F 58.1 °F 44% 29.92 in 10.0 mi SW 8.1 mph - N/A   Scattered Clouds
2:55 PM 81.5 °F 81.3 °F 56.5 °F 42% 29.92 in 10.0 mi SSW 5.8 mph - N/A   Scattered Clouds
2:56 PM 81.3 °F 81.2 °F 56.7 °F 43% 29.92 in 10.0 mi SSW 3.5 mph - N/A   Scattered Clouds
3:15 PM 82.0 °F 81.7 °F 56.8 °F 42% 29.91 in 10.0 mi West 4.6 mph - N/A   Scattered Clouds
3:38 PM 81.7 °F 81.3 °F 55.6 °F 41% 29.89 in 10.0 mi West 4.6 mph - N/A   Scattered Clouds
3:56 PM 81.3 °F 81.0 °F 55.8 °F 41% 29.89 in 10.0 mi NW 4.6 mph - N/A   Clear
4:15 PM 81.7 °F 81.4 °F 56.5 °F 42% 29.89 in 10.0 mi WNW 8.1 mph - N/A   Scattered Clouds
4:16 PM 81.7 °F 81.4 °F 56.5 °F 42% 29.89 in 10.0 mi WNW 8.1 mph - N/A   Scattered Clouds
4:35 PM 80.2 °F 80.4 °F 55.8 °F 43% 29.88 in 10.0 mi Calm Calm - N/A   Clear
4:59 PM 81.7 °F 81.2 °F 55.2 °F 40% 29.87 in 10.0 mi Calm Calm - N/A   Clear
5:17 PM 82.0 °F 81.6 °F 55.9 °F 41% 29.87 in 10.0 mi Calm Calm - N/A   Clear
5:35 PM 81.5 °F 81.1 °F 55.8 °F 41% 29.88 in 10.0 mi Calm Calm - N/A   Clear
5:36 PM 81.5 °F 81.1 °F 55.9 °F 41% 29.88 in 10.0 mi Calm Calm - N/A   Clear
5:55 PM 81.7 °F 81.4 °F 56.5 °F 42% 29.88 in 10.0 mi SSW 4.6 mph - N/A   Scattered Clouds
5:56 PM 81.5 °F 81.3 °F 56.5 °F 42% 29.88 in 10.0 mi SW 4.6 mph - N/A   Scattered Clouds
6:15 PM 80.4 °F 80.6 °F 56.7 °F 44% 29.89 in 10.0 mi SSW 8.1 mph - N/A   Scattered Clouds
6:38 PM 79.0 °F - 56.3 °F 46% 29.88 in 10.0 mi SW 3.5 mph - N/A   Scattered Clouds
6:56 PM 78.1 °F - 57.0 °F 48% 29.88 in 10.0 mi WSW 5.8 mph - N/A   Mostly Cloudy
7:15 PM 76.1 °F - 58.5 °F 54% 29.88 in 10.0 mi West 5.8 mph - N/A   Scattered Clouds
7:16 PM 76.1 °F - 58.5 °F 54% 29.88 in 10.0 mi West 5.8 mph - N/A   Scattered Clouds
7:35 PM 75.2 °F - 58.8 °F 57% 29.88 in 10.0 mi West 4.6 mph - N/A   Clear
7:36 PM 75.2 °F - 58.8 °F 57% 29.88 in 10.0 mi West 4.6 mph - N/A   Clear
7:59 PM 73.6 °F - 57.9 °F 58% 29.88 in 10.0 mi NW 3.5 mph - N/A   Clear
8:17 PM 73.4 °F - 58.3 °F 59% 29.88 in 10.0 mi WNW 3.5 mph - N/A   Clear
8:35 PM 72.3 °F - 59.2 °F 63% 29.88 in 10.0 mi North 3.5 mph - N/A   Clear
8:55 PM 70.9 °F - 59.5 °F 67% 29.88 in 10.0 mi Calm Calm - N/A   Clear
8:56 PM 71.1 °F - 59.5 °F 67% 29.88 in 10.0 mi Calm Calm - N/A   Clear
9:15 PM 70.2 °F - 59.7 °F 69% 29.88 in 10.0 mi Calm Calm - N/A   Clear
9:20 PM 70.2 °F - 59.4 °F 69% 29.88 in 10.0 mi Calm Calm - N/A   Clear
9:38 PM 68.7 °F - 59.5 °F 72% 29.89 in 10.0 mi Calm Calm - N/A   Scattered Clouds
9:56 PM 68.0 °F - 59.9 °F 75% 29.89 in 10.0 mi Calm Calm - N/A   Mostly Cloudy
10:15 PM 68.7 °F - 59.9 °F 73% 29.89 in 10.0 mi Calm Calm - N/A   Overcast
10:16 PM 68.9 °F - 59.7 °F 72% 29.89 in 10.0 mi Calm Calm - N/A   Overcast
10:35 PM 69.8 °F - 60.3 °F 72% 29.89 in 10.0 mi Calm Calm - N/A   Overcast
10:36 PM 69.8 °F - 60.3 °F 72% 29.89 in 10.0 mi Calm Calm - N/A   Overcast
10:59 PM 69.1 °F - 61.0 °F 75% 29.89 in 10.0 mi Calm Calm - N/A   Overcast
11:16 PM 69.1 °F - 60.8 °F 75% 29.88 in 10.0 mi Calm Calm - N/A   Overcast
11:35 PM 68.2 °F - 61.0 °F 78% 29.89 in 10.0 mi Calm Calm - N/A   Mostly Cloudy
11:36 PM 68.2 °F - 61.0 °F 78% 29.89 in 10.0 mi Calm Calm - N/A   Mostly Cloudy
11:55 PM 67.1 °F - 60.3 °F 79% 29.89 in 10.0 mi Calm Calm - N/A   Mostly Cloudy
11:56 PM 67.1 °F - 60.3 °F 79% 29.90 in 10.0 mi Calm Calm - N/A   Mostly Cloudy